CAPE
0 2 5 5 3 5 9 4 6 16 16 18 17 23 20 22 27 17 4 0 14 26 5 0 0 5 49 46 6 0 0 0 0 0 3 44 38 57 63 32 39 99 25 1 0 7 0 0 0 0 0 0 0 0
0 4 7 5 5 4 11 7 10 11 9 9 14 19 20 19 25 39 10 3 7 10 3 0 0 0 0 0 0 0 0 0 0 0 0 0 0 3 47 259 0 263 17 64 16 34 0 0 3 0 0 0 110 19
0 5 15 26 11 13 11 4 9 8 6 7 7 4 7 12 17 35 40 5 4 8 0 0 0 0 0 0 0 6 0 0 0 0 0 0 204 4 149 23 276 111 0 356 181 50 0 0 0 0 1 54 81 257
0 0 2 6 21 14 13 17 15 7 6 10 8 5 7 14 16 21 39 15 7 9 10 0 0 0 0 0 0 0 0 0 0 0 0 0 172 1 61 77 93 112 52 212 248 57 22 6 30 146 217 375 362 495
0 0 0 0 1 1 3 4 4 5 8 8 6 3 2 10 10 16 19 16 5 0 7 0 0 0 0 0 0 0 0 0 0 0 0 9 0 27 1 32 267 46 234 240 289 56 65 34 0 76 333 444 602 763
1 1 1 2 3 6 7 7 5 4 2 1 1 2 5 14 11 10 1 2 6 5 5 1 0 0 0 0 0 0 0 0 28 0 5 2 0 27 374 458 202 0 0 1 96 0 0 0 7 60 371 397 489 700
3 3 2 4 5 7 9 8 5 4 3 3 3 7 6 4 10 0 0 8 0 2 12 7 15 8 0 0 2 0 0 0 0 20 32 3 35 3 99 203 294 38 0 0 0 1 58 6 101 155 349 217 104 261
8 6 3 5 6 6 6 6 6 4 3 1 2 0 1 1 3 4 1 0 6 7 8 6 0 172 0 0 0 0 0 0 0 0 0 3 0 0 108 19 0 3 20 0 0 0 0 4 23 63 174 193 328 305
6 7 5 6 6 5 6 8 6 4 0 0 0 0 2 0 1 1 4 1 2 4 7 16 156 449 85 0 0 0 0 0 0 0 0 0 0 44 72 158 252 101 117 61 6 0 0 17 37 79 128 242 351 215
4 6 6 4 5 8 9 6 5 2 0 0 0 1 31 2 0 0 13 13 14 4 7 7 0 32 6 123 18 6 0 0 0 0 0 0 0 0 0 1 7 43 61 53 92 127 9 59 75 45 46 29 85 25
5 7 5 4 9 6 8 5 4 1 0 0 0 0 0 0 15 109 73 37 14 16 2 0 0 0 2 108 196 14 8 0 22 97 100 0 0 29 0 0 0 10 40 2 14 14 0 0 12 48 12 10 5 5
9 5 7 4 8 8 6 3 0 2 0 0 2 4 4 4 88 40 79 132 50 147 142 65 68 3 43 0 271 419 283 57 315 0 280 274 90 98 0 0 0 8 8 0 0 0 0 0 0 51 37 0 0 3
7 9 5 3 7 3 1 0 0 0 0 1 5 6 6 23 2 16 18 139 183 134 213 174 93 46 0 0 179 360 431 292 7 204 231 55 115 7 0 0 0 0 0 0 0 0 0 0 0 1 5 33 41 56
11 3 9 6 3 0 4 0 0 3 2 1 7 0 0 0 5 47 25 24 10 67 132 110 34 117 6 29 65 380 182 136 183 154 70 35 72 8 0 0 62 7 10 14 3 0 0 0 0 3 8 6 2 1
4 10 4 2 1 0 0 1 2 3 0 1 10 0 4 0 4 40 16 1 0 12 72 135 95 25 105 39 104 220 264 196 154 109 144 99 16 10 8 5 17 23 0 26 90 49 0 0 0 0 0 0 3 27
11 2 0 0 0 0 1 1 0 0 1 1 1 4 2 10 46 43 3 1 0 19 44 60 134 181 294 43 266 181 198 103 257 208 101 65 20 0 0 0 12 27 8 13 6 0 0 0 0 0 0 2 10 11
4 0 0 0 0 0 1 1 0 4 4 1 2 1 2 1 2 1 0 0 0 56 247 148 209 123 77 178 217 198 194 198 111 213 112 100 17 39 2 0 11 25 32 69 102 39 25 18 3 7 33 11 0 5
1 0 0 0 2 4 0 0 0 3 1 1 4 0 0 0 6 0 1 4 0 90 144 109 67 168 197 208 369 322 204 153 73 112 62 4 0 0 3 66 43 56 50 4 11 2 0 9 13 17 5 5 8 4
0 1 0 0 10 12 0 0 2 2 0 0 0 0 0 0 0 0 0 0 7 38 109 145 147 214 276 230 342 275 177 252 358 149 1 0 0 0 0 18 31 1 38 135 88 91 41 3 5 0 0 0 9 8
2 0 0 0 2 2 0 0 2 5 1 0 0 0 0 0 0 0 0 1 69 74 34 29 177 173 113 182 123 297 355 274 168 272 158 25 0 0 20 37 78 114 99 30 6 1 27 27 0 0 0 0 20 32
0 0 0 1 5 0 0 0 0 0 0 0 0 0 0 0 0 0 0 7 20 15 4 16 39 10 0 3 50 266 261 324 513 553 424 336 110 53 68 130 51 0 41 46 57 26 19 19 3 0 0 1 1 2
0 0 0 0 0 1 5 0 0 0 0 0 0 0 0 0 0 0 0 7 0 0 4 0 0 4 4 71 235 243 234 154 33 3 4 0 22 94 90 66 43 65 38 39 32 29 2 1 0 0 0 0 1 3
0 0 0 0 3 0 0 0 0 0 0 0 0 0 0 0 0 0 0 4 9 1 0 0 0 0 0 18 130 262 156 131 11 7 1 3 8 14 31 10 0 18 18 14 1 1 0 0 0 2 4 5 3 4
0 0 8 14 2 0 0 0 0 0 0 0 0 0 0 0 6 26 57 38 6 16 55 67 39 10 43 39 208 421 93 7 0 10 20 48 3 7 0 0 0 0 10 0 0 0 1 4 0 2 2 3 3 1
13 1 0 0 0 0 0 0 0 0 0 0 0 0 0 32 123 62 61 73 115 86 145 42 65 71 91 20 22 80 36 72 96 101 38 31 1 1 13 3 0 0 0 0 0 0 0 1 3 1 1 3 0 0
1 0 0 0 0 0 0 0 0 0 0 0 0 0 22 129 65 50 132 221 198 197 150 191 224 218 157 6 35 43 57 7 22 27 28 35 34 50 52 55 26 10 0 0 0 0 0 0 0 0 0 0 0 0
0 0 0 0 0 0 0 0 0 0 2 1 8 39 73 51 56 143 70 89 193 30 0 0 1 4 70 73 50 20 15 2 12 17 0 2 16 31 35 38 79 52 0 0 0 0 0 0 0 0 0 0 0 0
0 0 0 0 0 0 0 0 0 5 29 30 15 46 63 43 50 24 39 30 26 18 2 0 0 0 0 6 94 98 40 8 0 0 0 0 0 0 7 19 2 0 0 0 0 0 0 0 0 0 0 0 0 0
2 0 0 0 0 0 0 0 0 0 0 9 6 13 95 92 9 29 32 37 16 1 0 10 245 9 0 0 0 0 10 0 2 51 70 27 8 1 4 0 0 0 0 0 0 0 0 0 0 0 0 0 0 0
0 0 0 0 0 0 0 0 0 0 0 0 0 0 0 3 8 0 5 17 5 0 0 5 63 77 109 86 32 4 12 0 0 25 78 13 12 4 0 0 0 0 0 0 0 0 0 0 0 0 0 0 0 0
0 0 0 0 0 0 0 0 0 0 0 0 0 0 0 0 3 0 0 3 0 0 18 42 64 143 112 83 20 40 99 31 0 0 0 0 0 0 0 0 0 0 0 0 0 0 0 0 0 0 0 0 0 0
0 0 0 0 0 0 0 0 2 0 0 0 0 0 0 0 0 0 5 38 76 64 0 2 91 205 85 75 77 80 1 21 28 0 0 0 0 0 0 0 0 0 0 0 0 0 0 0 0 0 0 0 0 0
5 4 0 1 1 0 0 0 0 1 0 0 0 0 0 0 0 0 0 3 77 76 85 11 0 0 53 46 41 91 53 87 35 0 0 0 0 0 0 0 0 0 0 0 0 0 0 0 0 0 0 28 46 72
CIN
-0 -0 -0 -0 -0 -0 -0 -0 -0 -0 -0 -0 -1 -1 -1 -1 -1 -1 -0 -0 -0 -0 -0 -0 -0 -58 -123 -88 -0 -0 -0 -0 -0 -0 -12 -114 -102 -167 -149 -67 -200 -135 -75 -67 -0 -103 -0 -0 -0 -0 -0 -0 -0 -0
-0 -0 -0 -0 -0 -0 -0 -0 -0 -0 -0 -0 -0 -0 -0 -1 -3 -0 -0 -4 -1 -0 -0 -0 -0 -0 -0 -0 -0 -0 -0 -0 -0 -0 -0 -0 -0 -41 -236 -53 -0 -100 -105 -117 -197 -106 -0 -0 -49 -38 -0 -0 -454 -413
-0 -1 -1 -0 -0 -0 -0 -0 -0 -0 -0 -0 -0 -0 -0 -0 -1 -0 -0 -4 -0 -0 -0 -0 -0 -0 -0 -0 -0 -0 -0 -0 -0 -0 -0 -0 -174 -45 -73 -136 -214 -452 -0 -219 -345 -268 -0 -0 -0 -0 -99 -498 -547 -436
-0 -0 -0 -3 -1 -0 -0 -0 -0 -0 -0 -0 -0 -0 -0 -0 -0 -0 -0 -2 -1 -0 -0 -0 -0 -0 -0 -0 -0 -0 -0 -0 -0 -0 -0 -0 -149 -38 -223 -101 -210 -124 -547 -351 -282 -398 -453 -165 -511 -455 -458 -477 -499 -508
-0 -0 -0 -0 -0 -0 -0 -0 -0 -0 -0 -0 -0 -0 -0 -0 -0 -0 -0 -0 -1 -0 -0 -0 -0 -0 -0 -0 -0 -0 -0 -0 -0 -0 -0 -56 -0 -200 -64 -239 -117 -373 -218 -104 -80 -401 -291 -399 -0 -434 -279 -305 -292 -294
-0 -0 -0 -0 -0 -0 -0 -0 -0 -0 -0 -0 -0 -0 -0 -0 -0 -0 -0 -0 -0 -0 -0 -0 -5 -0 -0 -0 -0 -0 -0 -0 -264 -0 -151 -105 -0 -35 -79 -64 -198 -0 -0 -12 -264 -0 -8 -14 -322 -341 -260 -289 -278 -219
-0 -0 -0 -0 -0 -0 -0 -0 -0 -0 -0 -0 -0 -0 -0 -0 -0 -0 -0 -0 -1 -1 -0 -0 -117 -29 -0 -0 -121 -0 -0 -0 -0 -206 -321 -173 -218 -41 -122 -33 -94 -244 -0 -0 -0 -29 -258 -60 -164 -260 -219 -273 -369 -315
-0 -0 -0 -0 -0 -0 -0 -0 -0 -0 -0 -0 -0 -0 -0 -1 -0 -0 -0 -0 -0 -0 -0 -0 -0 -102 -0 -0 -0 -0 -0 -0 -0 -0 -0 -59 -0 -22 -68 -119 -0 -231 -340 -0 -0 -0 -0 -186 -345 -258 -240 -250 -171 -171
-0 -0 -0 -0 -0 -0 -0 -0 -0 -0 -0 -0 -0 -0 -0 -0 -0 -0 -0 -0 -0 -0 -0 -13 -18 -31 -121 -0 -0 -0 -0 -0 -0 -0 -0 -0 -0 -69 -121 -343 -314 -387 -345 -320 -261 -0 -0 -226 -251 -246 -199 -174 -119 -239
-0 -0 -0 -0 -0 -0 -0 -0 -0 -0 -0 -0 -0 -0 -2 -0 -0 -0 -0 -0 -0 -0 -0 -0 -0 -133 -57 -218 -163 -173 -0 -0 -0 -0 -0 -0 -0 -0 -0 -488 -487 -446 -438 -402 -205 -87 -173 -163 -180 -249 -310 -325 -239 -315
-0 -0 -0 -0 -0 -0 -0 -0 -0 -0 -0 -0 -0 -0 -0 -0 -33 -10 -0 -0 -3 -6 -0 -0 -0 -0 -68 -179 -172 -277 -134 -0 -12 -39 -70 -0 -34 -231 -141 -0 -0 -409 -380 -313 -288 -257 -0 -0 -151 -237 -333 -362 -337 -329
-0 -0 -0 -0 -0 -0 -0 -0 -0 -0 -0 -0 -0 -0 -0 -11 -6 -0 -0 -1 -18 -24 -44 -82 -91 -124 -218 -104 -190 -178 -97 -101 -15 -0 -40 -7 -172 -235 -0 -0 -0 -416 -267 -0 -0 -0 -0 -0 -0 -256 -309 -0 -0 -214
-0 -0 -0 -0 -0 -0 -0 -0 -0 -0 -0 -0 -0 -0 -0 -5 -0 -0 -0 -5 -9 -11 -8 -23 -95 -196 -0 -30 -208 -158 -53 -68 -36 -57 -22 -84 -213 -276 -0 -0 -0 -16 -0 -0 -0 -0 -0 -0 -0 -103 -315 -325 -294 -266
-0 -0 -0 -0 -0 -0 -0 -0 -0 -0 -0 -0 -1 -0 -0 -0 -0 -0 -0 -0 -0 -17 -18 -68 -198 -137 -212 -224 -203 -27 -168 -183 -43 -18 -24 -150 -209 -169 -0 -0 -184 -181 -124 -232 -21 -0 -0 -0 -0 -266 -279 -268 -206 -192
-0 -1 -0 -0 -0 -0 -0 -0 -0 -0 -0 -0 -1 -0 -0 -0 -34 -5 -0 -0 -0 -74 -61 -74 -155 -186 -171 -182 -161 -101 -62 -37 -41 -27 -87 -173 -231 -245 -215 -110 -89 -143 -0 -162 -151 -155 -0 -0 -0 -0 -0 -0 -100 -175
-0 -0 -0 -0 -0 -0 -0 -0 -0 -0 -0 -0 -0 -0 -2 -0 -0 -13 -9 -0 -0 -82 -102 -136 -111 -105 -80 -136 -36 -25 -13 -19 -36 -113 -179 -216 -213 -0 -0 -0 -91 -56 -33 -53 -74 -0 -0 -0 -0 -0 -0 -47 -120 -95
-2 -0 -0 -0 -0 -0 -0 -0 -0 -0 -0 -0 -0 -0 -0 -0 -10 -6 -4 -45 -60 -49 -11 -70 -46 -76 -128 -56 -28 -75 -27 -102 -131 -143 -180 -169 -181 -159 -175 -0 -60 -55 -81 -70 -53 -76 -69 -79 -92 -86 -51 -82 -0 -129
-0 -0 -0 -0 -0 -0 -0 -0 -0 -0 -0 -0 -0 -0 -0 -0 -15 -3 -26 -62 -0 -7 -13 -40 -89 -44 -34 -5 -17 -81 -136 -170 -199 -169 -172 -49 -0 -0 -60 -72 -64 -59 -75 -19 -161 -214 -33 -136 -105 -57 -85 -107 -92 -90
-0 -0 -0 -0 -0 -0 -0 -0 -0 -0 -0 -0 -0 -0 -0 -0 -0 -0 -0 -0 -65 -35 -15 -26 -40 -32 -37 -79 -53 -93 -137 -123 -86 -148 -71 -0 -0 -0 -0 -135 -127 -94 -113 -66 -51 -32 -55 -42 -22 -0 -0 -0 -25 -37
-0 -0 -0 -0 -0 -0 -0 -0 -0 -0 -0 -0 -0 -0 -0 -0 -0 -0 -0 -38 -43 -33 -27 -26 -20 -30 -57 -75 -134 -85 -99 -123 -100 -79 -91 -130 -0 -26 -137 -120 -96 -93 -77 -108 -112 -8 -65 -33 -0 -0 -0 -0 -9 -3
-0 -0 -0 -0 -0 -0 -0 -0 -0 -0 -0 -0 -0 -0 -0 -0 -0 -0 -0 -101 -51 -42 -54 -53 -51 -53 -0 -100 -163 -107 -106 -90 -70 -63 -57 -50 -103 -101 -102 -102 -175 -2 -56 -57 -43 -60 -39 -52 -77 -0 -0 -0 -0 -0
-0 -0 -0 -5 -0 -0 -0 -0 -0 -0 -0 -0 -0 -0 -0 -0 -0 -0 -0 -59 -0 -0 -115 -0 -0 -163 -206 -118 -103 -108 -110 -106 -143 -41 -33 -0 -59 -66 -60 -70 -81 -61 -75 -86 -84 -65 -23 -0 -0 -0 -0 -0 -0 -0
-0 -0 -0 -0 -2 -0 -0 -0 -0 -0 -0 -0 -0 -0 -0 -0 -0 -0 -0 -26 -69 -54 -0 -0 -0 -0 -54 -171 -144 -103 -122 -117 -171 -126 -33 -45 -126 -120 -75 -177 -0 -128 -116 -131 -55 -0 -0 -0 -0 -0 -0 -0 -0 -0
-0 -0 -4 -3 -8 -0 -0 -0 -0 -0 -0 -0 -0 -0 -0 -0 -121 -41 -15 -42 -110 -166 -112 -122 -140 -86 -145 -180 -78 -51 -99 -199 -0 -125 -110 -63 -34 -100 -18 -33 -0 -0 -123 -6 -0 -0 -0 -0 -0 -0 -0 -0 -0 -0
-0 -0 -1 -0 -0 -0 -0 -0 -0 -0 -0 -0 -0 -0 -3 -79 -15 -24 -20 -45 -55 -72 -63 -109 -98 -90 -44 -72 -111 -79 -160 -83 -33 -24 -62 -73 -9 -24 -137 -207 -0 -0 -0 -0 -0 -0 -0 -0 -0 -0 -0 -0 -0 -0
-2 -0 -0 -0 -0 -0 -0 -0 -0 -0 -0 -0 -0 -0 -74 -21 -11 -6 -12 -14 -21 -24 -34 -38 -42 -50 -82 -130 -99 -79 -82 -143 -93 -32 -41 -74 -56 -31 -51 -83 -119 -31 -0 -0 -0 -0 -0 -0 -0 -0 -0 -0 -0 -0
-0 -0 -0 -0 -0 -0 -0 -0 -0 -0 -10 -8 -15 -16 -17 -3 -3 -0 -30 -37 -18 -38 -0 -0 -24 -73 -57 -66 -107 -134 -139 -111 -113 -67 -0 -51 -102 -101 -92 -75 -53 -73 -0 -0 -0 -0 -0 -0 -0 -0 -0 -0 -0 -0
-0 -0 -0 -0 -0 -0 -0 -0 -0 -13 -9 -24 -29 -9 -3 -8 -1 -19 -21 -73 -67 -61 -42 -0 -0 -0 -0 -79 -67 -74 -87 -120 -0 -0 -0 -0 -0 -0 -149 -132 -19 -0 -0 -0 -0 -0 -0 -0 -0 -0 -0 -0 -0 -0
-0 -0 -0 -0 -0 -0 -0 -0 -0 -0 -0 -30 -22 -11 -4 -21 -72 -79 -69 -52 -72 -78 -0 -13 -18 -62 -0 -0 -0 -0 -69 -0 -6 -41 -24 -36 -78 -15 -175 -0 -0 -0 -0 -0 -0 -0 -0 -0 -0 -0 -0 -0 -0 -0
-0 -0 -0 -0 -0 -0 -0 -0 -0 -0 -0 -9 -0 -0 -0 -15 -51 -0 -117 -97 -92 -0 -0 -26 -49 -47 -36 -46 -69 -88 -126 -27 -0 -52 -21 -39 -39 -148 -0 -0 -0 -0 -0 -0 -0 -0 -0 -0 -0 -0 -0 -0 -0 -0
-0 -0 -0 -0 -0 -0 -0 -0 -0 -0 -0 -8 -0 -0 -0 -0 -55 -8 -16 -105 -0 -0 -50 -29 -37 -37 -47 -63 -100 -96 -55 -138 -18 -0 -0 -0 -0 -0 -0 -0 -0 -0 -0 -0 -0 -0 -0 -0 -0 -0 -0 -0 -0 -0
-0 -0 -0 -0 -0 -0 -0 -3 -12 -1 -0 -0 -0 -0 -0 -0 -0 -2 -97 -80 -57 -38 -2 -2 -21 -12 -48 -79 -100 -117 -9 -164 -141 -0 -0 -0 -0 -0 -0 -0 -0 -0 -0 -0 -0 -0 -0 -0 -0 -0 -0 -0 -0 -0
-0 -0 -0 -0 -0 -0 -0 -0 -0 -3 -0 -0 -0 -0 -0 -0 -0 -0 -0 -35 -51 -31 -25 -26 -0 -0 -59 -99 -122 -136 -233 -162 -197 -0 -0 -0 -0 -0 -0 -0 -0 -0 -0 -0 -0 -0 -0 -0 -0 -0 -0 -17 -15 -14
Wind_Speed
14 15 15 16 17 17 17 17 17 17 17 17 17 16 15 14 10 2 4 5 4 5 11 13 13 15 11 5 4 7 11 2 4 5 4 3 3 3 3 4 6 7 8 5 3 5 9 2 4 7 4 2 3 4
14 15 16 16 17 17 17 18 18 18 17 17 18 17 16 15 13 5 3 1 1 5 8 12 17 20 20 18 1 4 7 11 5 5 1 1 2 2 1 5 1 4 1 2 6 1 2 3 8 11 10 8 4 7
14 15 17 16 16 16 18 18 19 19 19 18 18 17 16 14 13 8 4 2 2 5 10 10 12 16 17 24 18 6 4 6 4 4 4 2 3 2 3 2 3 2 0 2 3 3 3 3 3 4 5 5 3 6
13 15 16 18 17 17 18 18 19 21 21 20 19 18 17 15 12 10 4 3 2 4 5 9 5 8 4 12 18 24 16 5 9 7 4 3 1 2 2 3 0 2 3 3 3 3 3 5 6 5 7 9 10 8
14 15 16 17 18 19 20 21 21 22 22 21 20 19 18 16 13 8 7 7 9 4 5 10 19 6 7 13 14 16 15 10 5 5 4 2 1 2 2 1 1 3 3 2 2 1 2 3 4 2 6 7 8 14
14 15 16 17 19 20 21 22 22 23 23 22 22 21 19 15 7 3 4 2 8 6 4 6 6 5 4 9 12 9 8 5 3 4 3 2 1 3 2 2 1 4 5 4 2 1 3 2 3 3 7 7 7 8
16 15 16 17 18 20 20 21 23 23 24 24 23 21 19 12 4 5 3 2 5 5 4 6 6 3 3 6 5 5 9 4 3 3 4 2 0 3 1 2 3 2 2 2 3 2 0 3 2 4 6 7 6 9
17 17 16 17 18 19 21 22 22 23 25 26 25 19 10 2 4 5 5 11 5 3 3 4 6 4 1 2 3 3 4 4 4 3 1 2 3 1 2 2 5 3 2 3 3 3 4 3 1 3 4 6 6 6
17 17 16 17 19 20 21 22 23 24 27 27 20 1 3 2 3 1 6 13 4 2 3 3 4 4 5 1 1 3 4 4 2 3 1 3 1 2 3 5 7 6 5 7 8 6 3 2 0 1 2 2 3 5
16 16 16 17 18 19 19 21 22 23 27 18 2 2 1 2 9 3 4 3 4 4 4 5 2 5 2 2 0 2 1 3 4 2 1 2 1 2 3 4 6 7 7 7 5 3 1 2 3 1 4 4 5 6
15 15 16 17 18 18 19 20 20 20 8 6 6 3 6 11 3 3 3 4 4 5 5 5 4 4 0 3 3 2 1 1 3 3 2 1 1 2 5 4 6 7 5 5 8 9 8 5 2 6 6 6 7 9
15 15 15 16 17 18 19 18 17 5 4 6 7 6 4 4 1 2 4 3 5 2 1 2 2 3 3 2 2 2 0 2 3 1 2 1 2 3 4 5 7 8 8 7 6 4 4 5 4 7 9 10 9 10
14 15 15 17 17 19 20 13 11 12 10 2 2 3 1 1 2 4 3 0 2 2 2 4 4 3 2 1 1 1 2 3 1 0 1 2 1 1 4 6 9 11 12 12 12 10 9 9 6 10 11 10 10 9
14 15 14 16 18 18 10 13 14 7 2 2 3 5 3 1 3 2 5 5 5 4 6 4 3 3 2 2 1 1 2 1 2 1 2 1 2 1 4 5 7 9 9 7 8 8 9 9 7 7 8 7 7 7
13 15 16 18 4 8 14 16 13 3 2 3 2 4 5 3 4 3 5 9 9 5 3 3 3 2 2 2 1 3 3 2 1 2 1 1 2 1 1 4 7 7 6 5 4 4 4 5 5 6 5 5 5 5
12 12 2 5 11 15 16 11 2 2 2 2 4 4 4 3 4 1 6 9 4 3 2 2 2 3 1 2 2 2 5 2 2 2 2 2 2 1 1 2 4 5 5 5 4 3 4 5 5 5 4 3 3 3
7 4 3 9 15 18 12 2 3 4 3 4 4 5 7 7 4 3 3 3 1 3 2 2 3 5 4 1 2 1 1 1 2 2 2 2 4 2 1 2 2 2 3 3 3 4 4 4 4 2 2 3 1 1
5 3 8 13 12 8 1 2 2 3 6 5 5 3 3 4 4 5 4 2 2 2 2 2 2 2 3 0 2 1 2 1 1 1 1 3 3 1 2 2 2 2 3 3 1 1 3 4 4 3 4 4 3 4
6 8 14 16 7 4 2 2 3 4 5 3 4 5 4 4 6 7 6 5 3 2 2 1 2 2 1 2 1 1 2 2 1 2 1 2 4 3 3 1 3 3 4 3 0 2 3 4 4 3 3 2 2 3
12 14 15 10 7 3 3 3 2 4 4 1 3 4 3 4 2 4 5 2 2 1 2 2 2 1 2 1 2 1 1 2 3 3 2 2 2 3 3 2 2 2 2 2 4 2 3 3 4 4 4 4 3 1
4 2 4 4 2 3 3 2 4 3 4 4 3 3 4 2 3 3 2 3 2 2 2 3 3 3 3 3 2 1 2 3 2 1 2 3 3 2 1 1 1 1 2 2 2 3 2 4 3 3 3 3 3 2
2 4 1 3 2 3 4 3 4 3 3 3 4 2 4 3 2 2 2 3 3 4 3 3 2 1 1 2 3 4 3 4 3 3 4 3 2 1 2 0 1 2 2 2 1 3 4 2 3 2 3 3 3 3
4 2 2 2 2 1 5 2 4 3 4 2 2 3 3 2 1 2 2 3 3 1 2 2 2 2 2 1 2 3 3 6 3 3 2 1 0 1 2 2 1 2 3 4 4 4 3 3 4 4 4 3 4 3
3 3 3 3 5 4 2 3 3 3 3 3 2 3 3 2 1 2 3 1 1 2 1 1 2 2 1 1 3 3 3 3 3 2 2 2 2 3 2 2 2 2 4 6 4 4 4 5 5 5 5 6 7 6
2 2 2 4 3 4 4 3 4 3 4 3 3 4 2 1 2 2 1 1 3 2 2 1 1 2 3 2 2 3 4 3 3 2 2 2 3 3 4 4 4 4 5 5 4 5 5 5 6 7 7 6 7 9
4 5 6 5 3 4 4 4 4 4 3 3 4 3 2 3 3 1 1 1 1 1 2 2 2 0 0 1 1 3 4 4 3 3 2 4 4 2 4 5 4 4 3 4 6 8 8 7 9 10 9 9 10 8
4 5 5 3 3 2 4 4 3 3 3 3 2 2 2 2 1 2 3 2 1 1 3 3 3 3 2 1 1 2 1 3 2 0 2 1 3 1 2 4 5 6 6 6 7 8 9 9 9 9 7 5 5 5
5 3 6 5 4 3 4 3 3 3 3 1 2 2 2 2 1 0 2 3 3 5 5 3 3 3 3 3 0 1 2 3 4 3 4 4 4 3 5 5 8 12 8 8 9 8 8 8 8 8 7 6 5 4
4 2 4 5 5 4 5 4 3 2 2 1 1 1 2 1 2 3 3 6 4 4 4 3 2 1 2 2 3 3 3 5 8 8 7 5 5 4 6 8 8 7 7 9 6 7 9 7 7 6 6 5 4 4
5 5 4 5 5 7 5 6 3 1 2 2 2 0 1 2 3 5 4 5 5 4 3 3 3 3 3 3 3 4 4 4 5 4 7 7 6 9 8 8 8 8 8 9 9 8 7 7 7 5 4 3 3 2
2 5 4 4 4 4 7 3 3 3 3 3 2 2 2 2 3 3 4 3 2 2 2 4 4 2 3 3 3 3 3 5 7 6 2 5 9 9 9 9 8 8 8 9 9 8 8 6 5 5 4 3 3 4
5 7 4 4 3 2 3 3 2 3 2 3 3 3 2 2 3 2 2 4 3 3 3 3 3 2 2 0 1 3 3 3 5 6 7 7 9 10 10 9 9 9 9 9 8 7 8 7 5 5 4 4 4 4
4 4 4 3 3 4 4 3 3 3 3 3 4 5 5 4 5 2 1 3 3 3 3 3 3 3 4 4 4 4 4 4 2 2 9 11 13 12 9 9 8 9 10 8 8 7 8 6 5 5 4 4 4 5
Wind_Direction
338 337 338 341 341 343 343 341 338 336 335 333 329 330 334 336 325 307 280 251 233 257 275 258 256 270 274 282 283 340 313 176 272 226 220 191 231 170 134 129 168 165 162 172 143 201 242 49 148 217 10 300 265 181
330 330 336 338 339 340 338 340 338 334 331 327 323 323 323 324 323 329 274 287 165 248 269 298 264 254 249 244 133 256 279 304 283 297 247 255 191 199 174 158 65 175 246 164 220 196 20 275 278 292 292 281 259 167
322 324 329 330 335 335 331 329 330 330 327 322 317 314 313 313 308 302 274 259 271 271 276 255 248 263 233 228 213 235 244 227 239 333 307 316 254 229 130 103 123 103 74 205 214 156 255 297 263 272 307 281 209 143
316 321 326 330 330 333 328 324 325 325 324 320 315 310 306 302 298 290 260 213 208 280 274 280 290 253 269 182 199 217 234 269 309 300 255 264 268 265 98 84 325 50 166 159 267 268 258 84 53 56 76 97 102 96
311 314 318 321 324 324 325 324 324 323 322 319 314 308 302 297 294 281 254 227 222 246 297 290 300 271 234 186 200 212 224 243 283 284 247 8 68 200 69 203 110 189 156 211 71 20 28 42 356 74 115 101 94 116
306 311 314 317 319 321 323 322 322 320 316 312 309 304 303 296 293 290 288 187 199 183 265 291 311 289 97 173 206 221 219 199 210 278 288 278 328 293 101 101 279 220 220 241 359 307 281 223 127 104 104 100 101 100
302 308 312 314 318 320 321 320 320 317 311 307 306 305 299 280 194 213 313 29 152 141 245 279 281 282 311 112 156 146 217 205 203 233 247 297 52 319 32 120 147 174 151 165 249 272 179 227 135 120 119 115 106 95
301 304 307 313 316 319 321 320 319 316 311 310 312 311 297 205 136 264 235 193 161 215 243 279 277 292 359 236 130 188 166 176 199 287 239 226 162 254 225 17 354 5 338 41 4 275 283 303 3 124 132 152 145 109
298 300 303 310 314 318 320 320 321 318 313 316 316 159 126 175 196 297 47 175 177 310 287 251 285 322 7 192 244 179 218 174 113 231 209 275 133 196 27 343 347 359 349 323 326 323 307 272 246 240 217 170 150 84
294 296 300 306 311 315 318 320 322 319 315 319 323 259 247 166 328 277 205 166 174 212 227 252 241 263 315 351 200 197 135 127 177 96 259 229 167 351 5 341 310 321 316 310 288 289 235 274 287 28 61 77 101 108
289 291 297 305 310 316 318 319 322 323 328 355 356 311 321 307 211 191 227 212 176 223 206 236 241 273 252 295 334 10 102 119 184 102 269 102 183 111 11 350 341 340 330 296 261 278 280 277 259 158 125 118 131 137
285 289 296 303 308 314 316 316 316 334 318 290 297 294 280 277 18 284 247 183 224 284 208 255 316 254 283 270 274 84 146 207 106 347 221 170 87 30 358 350 353 0 6 17 11 331 293 268 227 156 132 128 118 119
285 288 293 307 310 313 311 306 310 310 305 245 202 247 305 322 32 263 273 94 332 350 339 337 319 308 270 226 279 284 58 60 277 86 89 27 52 277 347 355 4 14 22 34 42 49 64 76 100 122 116 112 117 111
283 289 297 304 307 305 307 316 319 318 280 289 290 292 211 175 279 334 321 317 313 280 314 306 275 267 317 223 271 173 44 220 79 134 69 40 217 297 353 359 5 7 11 27 42 55 72 84 88 91 100 111 116 116
286 291 303 296 296 329 330 325 319 212 235 256 241 248 237 204 204 209 293 293 287 284 292 277 265 253 267 251 264 122 157 106 208 132 129 196 183 185 61 23 20 17 11 9 9 35 86 89 87 91 94 117 120 131
294 309 256 233 337 331 321 319 227 193 223 232 241 270 252 241 258 203 280 270 283 284 277 272 287 265 138 316 206 77 130 175 129 139 152 156 137 7 297 22 57 37 30 53 61 92 106 97 90 91 126 133 117 145
284 230 264 321 329 321 312 220 220 220 255 243 240 234 263 281 263 256 258 275 283 293 318 319 318 21 298 218 116 354 69 52 113 123 155 130 89 43 353 120 170 103 23 14 58 95 101 112 112 75 309 10 328 105
240 253 294 314 326 312 286 240 246 249 245 242 249 269 223 251 276 271 262 235 280 301 287 6 298 321 311 301 98 127 186 192 214 154 142 140 148 134 276 149 179 358 331 335 337 351 42 43 19 352 344 15 71 82
264 292 295 296 293 304 305 260 240 257 247 268 262 256 250 258 256 262 274 270 239 240 269 244 254 258 271 228 271 186 202 218 145 103 114 210 212 220 227 220 296 307 286 267 14 54 64 59 56 59 55 32 33 48
293 288 283 290 192 198 254 238 230 262 267 317 254 256 244 248 282 270 277 236 203 184 232 234 238 249 236 268 248 279 203 167 143 118 109 152 177 188 206 219 246 262 239 118 97 94 107 96 56 35 25 17 333 334
304 263 311 146 167 228 267 270 244 248 300 270 292 275 266 246 243 226 227 155 183 224 251 241 252 250 231 271 258 243 172 179 175 148 134 133 160 201 258 232 243 229 194 154 130 100 67 54 39 15 346 332 332 323
267 323 238 198 228 201 256 229 270 308 263 280 282 242 269 266 241 208 140 186 215 232 209 212 246 303 234 227 198 201 193 173 132 126 113 137 166 174 213 96 240 180 157 73 79 89 82 50 348 348 339 346 306 292
294 186 223 219 225 242 256 201 247 217 250 256 263 254 235 246 219 152 232 227 248 233 269 269 277 235 255 258 183 146 159 169 157 113 131 209 55 172 157 62 43 159 156 99 82 81 72 5 48 17 15 17 20 36
232 244 230 214 196 254 224 230 220 253 247 244 241 263 237 232 166 221 245 222 276 309 255 292 261 209 187 177 201 184 157 141 121 142 184 180 137 94 30 9 39 93 72 109 98 89 77 62 48 51 53 66 69 78
246 247 173 261 222 241 236 233 224 226 245 226 248 252 235 208 237 217 266 341 357 351 315 297 167 226 238 191 188 192 168 187 179 213 152 178 118 114 85 72 72 94 123 121 115 99 89 84 81 79 74 87 97 77
234 202 190 207 211 220 214 243 218 220 237 245 235 263 245 209 223 215 318 6 241 355 1 4 12 349 243 234 189 182 192 195 184 205 186 183 191 156 155 145 141 147 153 125 121 112 108 106 102 105 99 97 86 89
242 229 207 230 267 258 258 246 259 264 252 234 247 251 260 254 95 14 333 280 285 2 324 294 284 293 287 332 241 218 159 157 187 358 54 139 186 173 160 153 170 128 135 124 121 123 126 124 120 122 119 106 112 112
231 226 212 178 207 223 275 276 243 237 254 238 264 259 348 63 85 312 273 277 291 311 301 299 267 263 262 268 286 186 166 165 148 117 111 85 64 100 107 93 108 121 126 132 132 133 131 133 134 134 138 132 126 121
238 196 201 215 211 222 226 231 242 230 227 215 290 347 70 238 223 205 219 247 262 260 289 329 335 275 252 249 246 234 217 178 175 176 193 161 146 114 115 126 136 124 123 127 103 119 131 133 135 134 133 122 117 132
227 189 211 209 213 215 217 198 235 261 260 266 292 268 252 247 258 290 281 254 258 258 272 284 290 279 287 298 292 241 203 205 217 235 200 177 155 138 146 146 138 133 136 135 134 125 115 130 127 133 145 150 169 195
185 188 220 225 244 226 232 244 248 245 253 246 198 224 258 293 279 237 239 245 231 206 252 278 284 265 263 260 243 254 224 185 195 201 194 136 142 148 154 147 142 140 141 141 144 155 159 169 168 169 181 204 210 248
188 199 208 219 230 211 223 218 219 228 219 225 242 203 237 238 253 257 173 185 189 223 248 261 274 263 201 272 291 272 280 298 187 188 162 154 149 153 150 146 147 144 147 146 149 152 168 167 163 173 179 204 231 250
192 190 210 259 239 225 188 205 208 252 228 238 229 208 216 227 238 226 140 231 234 234 244 249 272 271 244 277 301 293 255 239 228 166 154 145 148 150 151 155 153 152 155 157 160 166 178 186 190 198 217 243 267 278